Terug naar catalogus

STARLINK-31929

ActiefCommunicatieVLEO
NORAD 59836·PAYLOAD·🇺🇸 United States

Gelanceerd May 23, 2024 vanaf Cape Canaveral Space Force Station

Loading…

Volgende Passages (komende 24 uur)

TLE

VersSource: CelesTrak SupGP

Epoch: Sep 15, 2026, 02:24 UTC

1 59836C 24097B   26258.10048611  .00014437  00000+0  52283-3 0  2586
2 59836  43.0004 284.9747 0001183 270.7094   0.4373 15.27577076    12

Volg STARLINK-31929 in realtime met AllMySat

Download on the App Store